This demonstration page uses our WeatherBlox Daily Observations layout. Learn more.

Left ArrowRight Arrow

Hourly Observations for October 6, 2022

Temp ( °F °C ) Dew Point ( °F °C ) Humidity (%) Winds ( mph kmh ) Pressure ( in mb ) Visibility ( mi km ) Precip ( " mm )
12:59 am 00:59 Mostly Cloudy 61 16.1 57 13.9 87 87 W 6 9 30.01 1016 10 16 0.00 0.00
1:59 am 01:59 Mostly Cloudy 62 16.7 57 13.9 84 84 W 7 11 30.01 1016 10 16 0.00 0.00
2:21 am 02:21 Cloudy 61 16.1 57 13.9 87 87 WNW 6 9 30.01 1016 10 16 0.00 0.00
2:59 am 02:59 Cloudy 61 16.1 56 13.3 83 83 WNW 5 7 30.00 1016 10 16 0.00 0.00
3:41 am 03:41 Mostly Cloudy 61 16.1 56 13.3 83 83 WNW 6 9 30.00 1016 10 16 0.00 0.00
3:59 am 03:59 Mostly Cloudy 61 16.1 56 13.3 83 83 NW 6 9 30.00 1016 10 16 0.00 0.00
4:59 am 04:59 Mostly Cloudy 60 15.6 55 12.8 83 83 WNW 6 9 30.01 1016 10 16 0.00 0.00
5:11 am 05:11 Mostly Cloudy 59 15 54 12.2 83 83 W 5 7 30.01 1016 10 16 0.00 0.00
5:59 am 05:59 Partly Cloudy 59 15 55 12.8 87 87 W 5 7 30.02 1017 10 16 0.00 0.00
6:59 am 06:59 Mostly Clear 59 15 55 12.8 87 87 W 6 9 30.04 1017 10 16 0.00 0.00
7:59 am 07:59 Mostly Sunny 60 15.6 56 13.3 86 86 WSW 3 6 30.05 1018 10 16 0.00 0.00
8:59 am 08:59 Mostly Sunny 62 16.7 56 13.3 80 80 W 5 7 30.06 1018 10 16 0.00 0.00
9:59 am 09:59 Mostly Sunny 64 17.8 56 13.3 75 75 W 6 9 30.06 1018 10 16 0.00 0.00
10:59 am 10:59 Mostly Sunny 67 19.4 55 12.8 66 66 WNW 5 7 30.06 1018 10 16 0.00 0.00
11:59 am 11:59 Mostly Sunny 70 21.1 49 9.4 47 47 W 8 13 30.06 1018 10 16 0.00 0.00
12:59 pm 12:59 Sunny 73 22.8 49 9.4 42 42 W 7 11 30.04 1017 10 16 0.00 0.00
1:59 pm 13:59 Mostly Sunny 75 23.9 49 9.4 40 40 NW 8 13 30.02 1017 10 16 0.00 0.00
2:59 pm 14:59 Sunny 77 25 47 8.3 35 35 NW 13 20 30.01 1016 10 16 0.00 0.00
3:59 pm 15:59 Sunny 76 24.4 50 10 40 40 NNW 7 11 30.00 1016 10 16 0.00 0.00
4:59 pm 16:59 Mostly Sunny 74 23.3 50 10 43 43 ENE 6 9 30.00 1016 10 16 0.00 0.00
5:59 pm 17:59 Mostly Sunny 73 22.8 50 10 44 44 E 5 7 30.01 1016 10 16 0.00 0.00
6:59 pm 18:59 Mostly Clear 66 18.9 54 12.2 65 65 SE 3 6 30.02 1017 10 16 0.00 0.00
7:59 pm 19:59 Mostly Clear 63 17.2 53 11.7 70 70 SSE 6 9 30.03 1017 10 16 0.00 0.00
8:59 pm 20:59 Clear 64 17.8 55 12.8 73 73 SSE 6 9 30.04 1017 10 16 0.00 0.00
9:59 pm 21:59 Clear 63 17.2 55 12.8 75 75 S 5 7 30.05 1018 10 16 0.00 0.00
10:59 pm 22:59 Clear 61 16.1 55 12.8 81 81 S 6 9 30.05 1018 10 16 0.00 0.00
11:59 pm 23:59 Clear 62 16.7 56 13.3 80 80 S 7 11 30.05 1018 10 16 0.00 0.00

Powered by AerisWeather